[ hide orbit diagram ]
For accurate long-term ephemerides, please instead use our Horizons system.This orbit viewer was implemented using two-body methods, and hence should not be used for determining accurate long-term trajectories (over several years or decades) or planetary encounter circumstances.
Orbital Elements at Epoch 2459000.5 (2020-May-31.0) TDB
Reference: JPL 16 (heliocentric ecliptic J2000)
Element | Value | Uncertainty (1-sigma) | Units |
e | .102476364818222 | 6.6028e-08 | |
a | 2.997843319498345 | 2.8014e-08 | au |
q | 2.690635233821562 | 2.0138e-07 | au |
i | 8.850212864693891 | 6.0453e-06 | deg |
node | 196.4555405435175 | 2.6774e-05 | deg |
peri | 198.0875343918005 | 4.1215e-05 | deg |
M | 31.59000861108231 | 2.6121e-05 | deg |
tp | 2458834.136109945637 (2019-Dec-16.63610995) | 0.00013797 | TDB |
period | 1895.88427014736 5.19 | 2.6575e-05 7.276e-08 | d yr |
n | .1898850081033789 | 2.6616e-09 | deg/d |
Q | 3.305051405175127 | 3.0885e-08 | au |
|
| | Orbit Determination Parameters
Additional Information
|
[ show covariance matrix ]
Physical Parameter Table
Parameter |
Symbol |
Value |
Units |
Sigma |
Reference |
Notes |
absolute magnitude |
H |
15.9 |
|
n/a |
MPO418209 |
|
|
226395 (2003 QZ13) Discovered 2003-Aug-19 by CINEOS at Campo Imperatore |
Reference: 20091202/Numbers.arc | Last Updated: 2009-12-04 |
|
[ show close-approach data ]
|